FW2710 Weather Reports


Display with metric or nautical units.
time (UTC)temp
F
wind
direction
speed
MPH
gust
MPH
rain 1hr
in
rain 24hr
in
rain mn
in
humidity
%
barometer
mb
20260508025029 52 0 0.0 4.0 0.04 0.11 0.11 77 1013.0
20260508024551 52 0 0.0 4.0 0.04 0.11 0.11 77 1012.9
20260508024025 52 0 0.0 4.0 0.03 0.10 0.10 78 1012.9
20260508023525 51 0 0.0 0.0 0.00 0.07 0.07 77 1013.5
20260508023038 51 0 0.0 0.0 0.00 0.07 0.07 77 1012.7
20260508022524 51 0 0.0 0.0 0.00 0.07 0.07 78 1012.5
20260508022024 51 0 0.0 1.0 0.00 0.07 0.07 78 1012.6
20260508021535 51 0 0.0 1.0 0.00 0.07 0.07 78 1012.6
20260508021027 51 0 0.0 0.0 0.00 0.07 0.07 78 1012.6
20260508020524 51 0 0.0 0.0 0.00 0.07 0.07 78 1012.5
20260508020046 50 0 0.0 0.0 0.00 0.07 0.07 78 1012.4
20260508015525 51 0 0.0 0.0 0.00 0.07 0.07 78 1012.3
20260508015024 51 0 0.0 0.0 0.00 0.07 0.07 78 1012.3
20260508014537 51 0 0.0 0.0 0.00 0.07 0.07 78 1012.2
20260508014025 51 0 0.0 0.0 0.00 0.07 0.07 77 1012.2
20260508013526 51 0 0.0 0.0 0.00 0.07 0.07 77 1012.1
20260508013038 51 0 0.0 0.0 0.00 0.07 0.07 76 1012.1
20260508012526 52 0 0.0 0.0 0.00 0.07 0.07 76 1012.1
20260508012028 52 0 0.0 0.0 0.00 0.07 0.07 75 1012.2
20260508011548 52 0 0.0 0.0 0.00 0.07 0.07 75 1012.1
20260508011026 53 0 0.0 3.0 0.00 0.07 0.07 75 1012.1
20260508010526 53 0 0.0 3.0 0.00 0.07 0.07 74 1012.1
20260508010056 53 0 0.0 1.0 0.00 0.07 0.07 73 1012.0
20260508005534 54 0 0.0 0.0 0.00 0.07 0.07 73 1011.9
20260508005026 54 0 0.0 0.0 0.00 0.07 0.07 72 1011.8
20260508004554 54 0 0.0 0.0 0.00 0.07 0.07 72 1011.7
20260508004026 55 0 0.0 3.0 0.00 0.07 0.07 72 1011.7
20260508003526 55 0 0.0 3.0 0.00 0.07 0.07 71 1011.7
20260508003046 55 0 0.0 3.0 0.00 0.07 0.07 70 1011.9
20260508002526 56 0 0.0 2.0 0.00 0.07 0.07 69 1011.9
20260508002028 56 0 0.0 1.0 0.00 0.07 0.07 69 1012.0
20260508001547 56 0 0.0 4.0 0.00 0.07 0.07 68 1012.0
20260508001026 56 0 0.0 4.0 0.00 0.07 0.07 69 1012.0
20260508000530 56 0 0.0 3.0 0.00 0.07 0.07 68 1012.0
20260508000045 56 0 0.0 1.0 0.00 0.07 0.07 70 1011.9
20260507235529 56 0 0.0 3.0 0.00 0.07 0.07 70 1012.0
20260507235029 56 0 0.0 3.0 0.00 0.07 0.07 69 1012.1
20260507234541 56 0 0.0 3.0 0.00 0.07 0.07 68 1012.3
20260507234026 56 0 0.0 3.0 0.00 0.07 0.07 68 1012.3
20260507233528 57 0 0.0 3.0 0.00 0.07 0.07 66 1012.2
20260507233040 57 0 0.0 3.0 0.00 0.07 0.07 64 1012.2
20260507232527 57 0 0.0 3.0 0.00 0.07 0.07 66 1012.2
20260507232026 57 0 0.0 8.0 0.00 0.07 0.07 65 1012.4
20260507231541 58 0 1.0 8.0 0.00 0.07 0.07 64 1012.4
20260507231027 58 0 1.0 6.0 0.00 0.07 0.07 64 1012.4
20260507230530 58 0 0.0 7.0 0.00 0.07 0.07 63 1012.3
20260507230039 58 0 1.0 8.0 0.00 0.07 0.07 63 1012.4
20260507225526 58 0 1.0 8.0 0.00 0.07 0.07 62 1012.4
20260507225030 59 287 1.0 9.0 0.00 0.07 0.07 63 1012.5
20260507224537 59 287 5.0 9.0 0.00 0.07 0.07 63 1012.4
20260507224026 59 0 0.0 7.0 0.00 0.07 0.07 60 1012.4
20260507223530 59 0 1.0 13.0 0.00 0.07 0.07 61 1012.4
20260507223043 58 0 1.0 13.0 0.00 0.07 0.07 61 1012.2
20260507222526 58 287 3.0 11.0 0.00 0.07 0.07 59 1012.4
20260507222026 59 287 0.0 7.0 0.00 0.07 0.07 61 1012.4
20260507221539 59 0 1.0 7.0 0.00 0.07 0.07 58 1012.5
20260507221026 60 0 0.0 4.0 0.00 0.07 0.07 58 1012.4
20260507220526 60 0 0.0 4.0 0.01 0.07 0.07 60 1012.4
20260507220039 60 0 0.0 4.0 0.01 0.07 0.07 58 1012.5
20260507215529 60 0 0.0 7.0 0.01 0.07 0.07 59 1012.5
20260507215026 60 0 1.0 10.0 0.01 0.07 0.07 58 1012.4
20260507214538 60 287 0.0 10.0 0.01 0.07 0.07 61 1012.5
20260507214027 60 287 2.0 9.0 0.01 0.07 0.07 59 1012.4
20260507213527 60 0 2.0 9.0 0.01 0.07 0.07 61 1012.4
20260507213050 60 287 1.0 8.0 0.01 0.07 0.07 66 1012.4
20260507212526 59 287 0.0 8.0 0.01 0.07 0.07 66 1012.5
20260507212027 58 287 1.0 8.0 0.01 0.07 0.07 66 1012.4
20260507211544 58 0 0.0 8.0 0.01 0.07 0.07 73 1012.5
20260507211026 57 0 0.0 8.0 0.01 0.07 0.07 70 1012.8
20260507210527 57 0 1.0 8.0 0.00 0.06 0.06 66 1013.2
20260507210045 57 0 0.0 9.0 0.00 0.06 0.06 64 1012.9
20260507205527 58 287 0.0 9.0 0.00 0.06 0.06 64 1012.8
20260507205028 58 0 0.0 8.0 0.01 0.06 0.06 62 1012.8
20260507204548 59 287 1.0 8.0 0.02 0.06 0.06 64 1012.9
20260507204027 59 0 0.0 8.0 0.02 0.06 0.06 68 1012.8
20260507203527 59 0 1.0 8.0 0.02 0.06 0.06 65 1012.8
20260507203038 59 0 1.0 8.0 0.02 0.06 0.06 68 1012.9
20260507202526 58 0 0.0 10.0 0.04 0.06 0.06 71 1012.9
20260507202027 57 0 1.0 10.0 0.05 0.06 0.06 76 1013.0
20260507201540 56 0 0.0 6.0 0.06 0.06 0.06 79 1013.0
20260507201026 55 0 0.0 4.0 0.06 0.06 0.06 78 1013.0
20260507200526 54 287 0.0 9.0 0.06 0.06 0.06 82 1013.1
20260507200042 53 0 1.0 9.0 0.06 0.06 0.06 80 1013.3
20260507195527 52 0 0.0 4.0 0.06 0.06 0.06 78 1013.5
20260507195026 52 0 0.0 7.0 0.05 0.05 0.05 78 1013.8
20260507194540 52 0 0.0 7.0 0.04 0.04 0.04 80 1013.7
20260507194025 52 287 1.0 7.0 0.04 0.04 0.04 83 1013.7
20260507193527 51 287 0.0 9.0 0.04 0.04 0.04 80 1013.7
20260507193040 51 0 2.0 9.0 0.04 0.04 0.04 78 1014.4
20260507192526 52 287 2.0 9.0 0.02 0.02 0.02 75 1014.8
20260507192026 53 0 2.0 9.0 0.01 0.01 0.01 73 1014.6
20260507191539 54 0 0.0 1.0 0.00 0.00 0.00 69 1014.7
20260507191027 54 0 0.0 1.0 0.00 0.00 0.00 67 1014.4
20260507190526 55 0 0.0 4.0 0.00 0.00 0.00 67 1014.2
20260507190045 56 0 0.0 7.0 0.00 0.00 0.00 65 1013.7
20260507185526 56 0 0.0 12.0 0.00 0.00 0.00 65 1013.4
20260507185029 57 0 0.0 18.0 0.00 0.00 0.00 60 1013.6
20260507184544 58 287 6.0 18.0 0.00 0.00 0.00 53 1013.8
20260507184027 60 287 6.0 18.0 0.00 0.00 0.00 40 1013.3
20260507183526 61 287 1.0 11.0 0.00 0.00 0.00 42 1013.0
20260507183042 61 287 1.0 10.0 0.00 0.00 0.00 41 1013.0
20260507182526 62 287 1.0 13.0 0.00 0.00 0.00 40 1013.0
20260507182027 62 0 4.0 14.0 0.00 0.00 0.00 39 1013.0
20260507181538 64 287 6.0 14.0 0.00 0.00 0.00 36 1012.9
20260507181027 65 287 5.0 14.0 0.00 0.00 0.00 37 1012.9
20260507180525 64 287 2.0 13.0 0.00 0.00 0.00 37 1013.1
20260507180044 65 287 3.0 13.0 0.00 0.00 0.00 37 1013.2
20260507175526 63 287 3.0 10.0 0.00 0.00 0.00 39 1013.2
20260507175026 63 287 4.0 10.0 0.00 0.00 0.00 38 1013.2
20260507174540 63 287 3.0 11.0 0.00 0.00 0.00 38 1013.5
20260507174026 63 287 1.0 11.0 0.00 0.00 0.00 38 1013.6
20260507173527 63 287 4.0 10.0 0.00 0.00 0.00 39 1013.8
20260507173046 62 0 2.0 10.0 0.00 0.00 0.00 38 1013.9
20260507172526 62 0 3.0 11.0 0.00 0.00 0.00 37 1014.0
20260507172026 62 0 4.0 13.0 0.00 0.00 0.00 39 1014.1
20260507171542 62 0 4.0 13.0 0.00 0.00 0.00 39 1014.2
20260507171026 62 287 5.0 13.0 0.00 0.00 0.00 38 1014.3
20260507170528 62 287 4.0 11.0 0.00 0.00 0.00 39 1014.4
20260507170039 61 0 3.0 11.0 0.00 0.00 0.00 40 1014.5
20260507165525 60 287 3.0 11.0 0.00 0.00 0.00 41 1014.6
20260507165027 59 287 3.0 10.0 0.00 0.00 0.00 41 1014.7
20260507164538 60 287 2.0 10.0 0.00 0.00 0.00 39 1014.8
20260507164031 60 287 2.0 10.0 0.00 0.00 0.00 38 1014.8
20260507163526 60 287 3.0 10.0 0.00 0.00 0.00 42 1014.9
20260507163038 60 287 1.0 10.0 0.00 0.00 0.00 40 1014.9
20260507162526 61 287 4.0 10.0 0.00 0.00 0.00 41 1014.9
20260507162026 61 287 2.0 12.0 0.00 0.00 0.00 42 1014.9
20260507161546 61 0 3.0 12.0 0.00 0.00 0.00 41 1015.0
20260507161026 60 287 4.0 11.0 0.00 0.00 0.00 45 1015.0
20260507160528 59 287 3.0 10.0 0.00 0.00 0.00 43 1015.0
20260507160040 59 287 5.0 10.0 0.00 0.00 0.00 42 1015.1
20260507155525 59 287 1.0 9.0 0.00 0.00 0.00 42 1015.2
20260507155026 58 0 3.0 11.0 0.00 0.00 0.00 43 1015.2
20260507154542 58 0 3.0 11.0 0.00 0.00 0.00 43 1015.3
20260507154025 59 287 2.0 9.0 0.00 0.00 0.00 43 1015.4
20260507153525 58 287 5.0 11.0 0.00 0.00 0.00 44 1015.4
20260507153046 58 287 3.0 11.0 0.00 0.00 0.00 46 1015.6
20260507152526 58 287 1.0 8.0 0.00 0.00 0.00 44 1015.7
20260507152027 58 287 2.0 9.0 0.00 0.00 0.00 46 1015.8
20260507151536 57 0 2.0 9.0 0.00 0.00 0.00 46 1015.8
20260507151025 57 287 2.0 8.0 0.00 0.00 0.00 45 1016.0
20260507150528 57 0 1.0 8.0 0.00 0.00 0.00 46 1015.9
20260507150043 56 0 2.0 9.0 0.00 0.00 0.00 48 1015.9
20260507145529 56 287 2.0 9.0 0.00 0.00 0.00 49 1015.9
20260507145026 55 287 0.0 8.0 0.00 0.00 0.00 48 1015.9
20260507144546 55 0 1.0 9.0 0.00 0.00 0.00 49 1016.0
20260507144026 55 287 2.0 9.0 0.00 0.00 0.00 49 1016.1
20260507143530 55 0 2.0 8.0 0.00 0.00 0.00 53 1016.2
20260507143045 55 0 1.0 9.0 0.00 0.00 0.00 52 1016.3
20260507142527 54 287 1.0 9.0 0.00 0.00 0.00 54 1016.3
20260507142026 54 287 2.0 9.0 0.00 0.00 0.00 52 1016.4
20260507141552 54 0 1.0 7.0 0.00 0.00 0.00 53 1016.4
20260507141030 53 0 0.0 7.0 0.00 0.00 0.00 54 1016.4
20260507140526 53 0 1.0 7.0 0.00 0.00 0.00 55 1016.4
20260507140104 52 0 0.0 6.0 0.00 0.00 0.00 56 1016.4
20260507135526 52 287 0.0 6.0 0.00 0.00 0.00 54 1016.5
20260507135026 52 0 1.0 6.0 0.00 0.00 0.00 56 1016.5
20260507134539 52 287 0.0 4.0 0.00 0.00 0.00 56 1016.5
20260507134025 51 0 1.0 6.0 0.00 0.00 0.00 56 1016.5
20260507133526 51 287 0.0 6.0 0.00 0.00 0.00 58 1016.6
20260507133038 51 0 0.0 6.0 0.00 0.00 0.00 59 1016.6
20260507132526 50 0 0.0 4.0 0.00 0.00 0.00 61 1016.6
20260507132026 50 0 0.0 3.0 0.00 0.00 0.00 60 1016.6
20260507131539 49 0 0.0 0.0 0.00 0.00 0.00 62 1016.6
20260507131026 49 0 0.0 0.0 0.00 0.00 0.00 62 1016.6
20260507130529 48 0 0.0 0.0 0.00 0.00 0.00 63 1016.7
20260507130049 48 0 0.0 0.0 0.00 0.00 0.00 66 1016.7
20260507125529 47 0 0.0 0.0 0.00 0.00 0.00 67 1016.6
20260507125026 46 0 0.0 0.0 0.00 0.00 0.00 70 1016.6
20260507124552 45 0 0.0 0.0 0.00 0.00 0.00 74 1016.7
20260507124027 44 0 0.0 0.0 0.00 0.00 0.00 76 1016.7
20260507123526 43 0 0.0 0.0 0.00 0.00 0.00 77 1016.7
20260507123052 43 0 0.0 0.0 0.00 0.00 0.00 79 1016.7
20260507122528 42 0 0.0 0.0 0.00 0.00 0.00 80 1016.6
20260507122026 41 0 0.0 0.0 0.00 0.00 0.00 82 1016.6
20260507121542 41 0 0.0 0.0 0.00 0.00 0.00 83 1016.6
20260507121026 40 0 0.0 0.0 0.00 0.00 0.00 83 1016.5
20260507120525 39 0 0.0 0.0 0.00 0.00 0.00 83 1016.5
20260507120040 39 0 0.0 0.0 0.00 0.00 0.00 83 1016.4
20260507115526 39 0 0.0 0.0 0.00 0.00 0.00 82 1016.4
20260507115025 39 0 0.0 0.0 0.00 0.00 0.00 81 1016.4
20260507114546 38 0 0.0 0.0 0.00 0.00 0.00 81 1016.2
20260507114027 38 0 0.0 0.0 0.00 0.00 0.00 80 1016.3
20260507113525 38 0 0.0 0.0 0.00 0.00 0.00 79 1016.3
20260507113042 38 0 0.0 0.0 0.00 0.00 0.00 78 1016.3
20260507112527 37 0 0.0 0.0 0.00 0.00 0.00 78 1016.3
20260507112027 37 0 0.0 0.0 0.00 0.00 0.00 79 1016.3
20260507111544 37 0 0.0 0.0 0.00 0.00 0.00 79 1016.3
20260507111025 37 0 0.0 0.0 0.00 0.00 0.00 79 1016.3
20260507110526 37 0 0.0 0.0 0.00 0.00 0.00 80 1016.2
20260507110047 37 0 0.0 0.0 0.00 0.00 0.00 80 1016.2
20260507105525 37 0 0.0 0.0 0.00 0.00 0.00 80 1016.1
20260507105025 37 0 0.0 0.0 0.00 0.00 0.00 80 1016.1
20260507104547 37 0 0.0 0.0 0.00 0.00 0.00 80 1016.1
20260507104027 37 0 0.0 0.0 0.00 0.00 0.00 79 1016.1
20260507103526 37 0 0.0 0.0 0.00 0.00 0.00 79 1016.1
20260507103043 37 0 0.0 0.0 0.00 0.00 0.00 79 1016.3
20260507102525 37 0 0.0 0.0 0.00 0.00 0.00 79 1016.2
20260507102026 37 0 0.0 0.0 0.00 0.00 0.00 79 1016.3
20260507101546 37 0 0.0 0.0 0.00 0.00 0.00 79 1016.3
20260507101025 38 0 0.0 0.0 0.00 0.00 0.00 79 1016.3
20260507100525 38 0 0.0 0.0 0.00 0.00 0.00 80 1016.4
20260507100038 38 0 0.0 0.0 0.00 0.00 0.00 80 1016.4
20260507095526 38 0 0.0 0.0 0.00 0.00 0.00 80 1016.4
20260507095026 38 0 0.0 0.0 0.00 0.00 0.00 80 1016.3
20260507094540 38 0 0.0 0.0 0.00 0.00 0.00 80 1016.4
20260507094026 38 0 0.0 0.0 0.00 0.00 0.00 79 1016.4
20260507093525 38 0 0.0 0.0 0.00 0.00 0.00 79 1016.5
20260507093040 38 0 0.0 0.0 0.00 0.00 0.00 80 1016.4
20260507092530 39 0 0.0 0.0 0.00 0.00 0.00 80 1016.4
20260507092025 39 0 0.0 0.0 0.00 0.00 0.00 80 1016.4
20260507091544 38 0 0.0 0.0 0.00 0.00 0.00 81 1016.4
20260507091026 38 0 0.0 0.0 0.00 0.00 0.00 80 1016.4
20260507090526 38 0 0.0 0.0 0.00 0.00 0.00 81 1016.5
20260507090043 38 0 0.0 0.0 0.00 0.00 0.00 81 1016.5
20260507085526 38 0 0.0 0.0 0.00 0.00 0.00 82 1016.7
20260507085026 38 0 0.0 0.0 0.00 0.00 0.00 82 1016.6
20260507084541 38 0 0.0 0.0 0.00 0.00 0.00 82 1016.6
20260507084035 38 0 0.0 0.0 0.00 0.00 0.00 82 1016.8
20260507083526 38 0 0.0 0.0 0.00 0.00 0.00 82 1016.7
20260507083047 38 0 0.0 0.0 0.00 0.00 0.00 82 1016.7
20260507082526 38 0 0.0 0.0 0.00 0.00 0.00 82 1016.6
20260507082025 38 0 0.0 0.0 0.00 0.00 0.00 82 1016.6
20260507081538 38 0 0.0 0.0 0.00 0.00 0.00 82 1016.6
20260507081025 37 0 0.0 0.0 0.00 0.00 0.00 81 1016.6
20260507080526 37 0 0.0 0.0 0.00 0.00 0.00 81 1016.6
20260507075526 37 0 0.0 0.0 0.00 0.00 0.00 81 1016.8
20260507075026 37 0 0.0 0.0 0.00 0.00 0.00 81 1016.7
20260507074545 37 0 0.0 0.0 0.00 0.00 0.00 82 1016.6
20260507074026 36 0 0.0 0.0 0.00 0.00 0.00 82 1016.8
20260507073526 36 0 0.0 0.0 0.00 0.00 0.00 81 1016.9
20260507073040 36 0 0.0 0.0 0.00 0.00 0.00 81 1016.9
20260507072526 36 0 0.0 0.0 0.00 0.00 0.00 81 1016.9
20260507072025 36 0 0.0 0.0 0.00 0.00 0.00 81 1017.0
20260507071554 36 0 0.0 0.0 0.00 0.00 0.00 80 1016.9
20260507071029 36 0 0.0 0.0 0.00 0.00 0.00 80 1017.0
20260507070525 36 0 0.0 0.0 0.00 0.00 0.00 80 1017.0
20260507070039 36 0 0.0 0.0 0.00 0.00 0.00 79 1017.1
20260507065525 36 0 0.0 0.0 0.00 0.00 0.00 79 1017.0
20260507065025 36 0 0.0 0.0 0.00 0.00 0.00 79 1017.0
20260507064546 36 0 0.0 0.0 0.00 0.00 0.00 78 1017.0
20260507064025 36 0 0.0 0.0 0.00 0.00 0.00 78 1017.1
20260507063525 36 0 0.0 0.0 0.00 0.00 0.00 78 1017.2
20260507063040 36 0 0.0 0.0 0.00 0.00 0.00 79 1017.1
20260507062526 36 0 0.0 0.0 0.00 0.00 0.00 78 1017.1
20260507062025 36 0 0.0 0.0 0.00 0.00 0.00 78 1017.2
20260507061538 36 0 0.0 0.0 0.00 0.00 0.00 78 1017.2
20260507061025 36 0 0.0 0.0 0.00 0.00 0.00 78 1017.1
20260507060525 36 0 0.0 0.0 0.00 0.00 0.00 77 1017.1
20260507060039 36 0 0.0 0.0 0.00 0.00 0.00 77 1017.1
20260507055526 37 0 0.0 0.0 0.00 0.00 0.00 77 1017.1
20260507055028 37 0 0.0 0.0 0.00 0.00 0.00 77 1017.1
20260507054546 37 0 0.0 0.0 0.00 0.00 0.00 77 1017.1
20260507054025 37 0 0.0 0.0 0.00 0.00 0.00 77 1017.2
20260507053526 37 0 0.0 0.0 0.00 0.00 0.00 76 1017.2
20260507053048 37 0 0.0 0.0 0.00 0.00 0.00 76 1017.2
20260507052525 37 0 0.0 0.0 0.00 0.00 0.00 76 1017.2
20260507052025 37 0 0.0 0.0 0.00 0.00 0.00 76 1017.2
20260507051540 37 0 0.0 0.0 0.00 0.00 0.00 76 1017.1
20260507051024 37 0 0.0 0.0 0.00 0.00 0.00 75 1017.1
20260507050524 38 0 0.0 0.0 0.00 0.00 0.00 75 1017.2
20260507050039 38 0 0.0 0.0 0.00 0.00 0.00 75 1017.1
20260507045525 38 0 0.0 0.0 0.00 0.00 0.00 74 1017.2
20260507045025 38 0 0.0 0.0 0.00 0.00 0.00 74 1017.1
20260507044539 38 0 0.0 0.0 0.00 0.00 0.00 74 1017.1
20260507044025 38 0 0.0 0.0 0.00 0.00 0.00 74 1017.1
20260507043525 39 0 0.0 0.0 0.00 0.00 0.00 73 1017.2
20260507043040 39 0 0.0 0.0 0.00 0.00 0.00 73 1017.2
20260507042525 39 0 0.0 0.0 0.00 0.00 0.00 72 1017.2
20260507042026 39 0 0.0 0.0 0.00 0.00 0.00 72 1017.1
20260507041539 39 0 0.0 0.0 0.00 0.00 0.00 71 1017.2
20260507041025 40 0 0.0 0.0 0.00 0.00 0.00 70 1017.1
20260507040526 40 0 0.0 0.0 0.00 0.00 0.00 70 1017.1
20260507040053 40 0 0.0 0.0 0.00 0.00 0.00 70 1017.1
20260507035526 40 0 0.0 0.0 0.00 0.00 0.00 70 1017.1
20260507035025 41 0 0.0 0.0 0.00 0.00 0.00 70 1017.2
20260507034540 41 0 0.0 0.0 0.00 0.00 0.00 70 1017.2
20260507034027 41 0 0.0 0.0 0.00 0.00 0.00 70 1017.2
20260507033530 42 0 0.0 0.0 0.00 0.00 0.00 70 1017.3
20260507033042 42 0 0.0 0.0 0.00 0.00 0.00 70 1017.3
20260507032526 42 0 0.0 0.0 0.00 0.00 0.00 68 1017.3
20260507032027 42 0 0.0 0.0 0.00 0.00 0.00 68 1017.4
20260507031538 42 0 0.0 0.0 0.00 0.00 0.00 68 1017.3
20260507031026 42 0 0.0 0.0 0.00 0.00 0.00 69 1017.3
20260507030526 43 0 0.0 0.0 0.00 0.00 0.00 69 1017.3
20260507030040 43 0 0.0 0.0 0.00 0.00 0.00 68 1017.2
20260507025525 43 0 0.0 0.0 0.00 0.00 0.00 67 1017.2